Volver al catálogo

OPS 5712

P/L 153

ActivoMilitarLEO
NORAD 2874·PAYLOAD·🇺🇸 United States

Lanzado May 31, 1967 desde Vandenberg Space Force Base

Loading…

Próximos Pases (próximas 24 horas)

TLE

ActualizadoSource: Space-Track

Época: Sep 14, 2026, 11:47 UTC

1 02874U 67053H   26257.49133256  .00000001  00000-0  38946-4 0  9992
2 02874  69.9724 283.8883 0004561  72.2819 287.8785 13.96839064 19267

Sigue OPS 5712 en tiempo real con AllMySat

Download on the App Store